This is the latest recevied weather packets stored in our database for station/object N5DGC. If no packets are shown the sender has not sent any weather packets the latest 10 day(s).
| Time | Temp. | Humidity | Pressure | Rain* | Wind** | Luminosity | Snow |
|---|---|---|---|---|---|---|---|
| 1787847533 | 30° C | 30% | 1245.7 hPa | 0 mm | - | 664 W/m² | - |
| 1787847228 | 29.44° C | 30% | 1245.6 hPa | 0 mm | - | 644 W/m² | - |
| 1787846926 | 30.56° C | 29% | 1245.7 hPa | 0 mm | - | 628 W/m² | - |
| 1787846624 | 29.44° C | 31% | 1245.6 hPa | 0 mm | - | 617 W/m² | - |
| 1787846319 | 29.44° C | 31% | 1245.6 hPa | 0 mm | - | 606 W/m² | - |
| 1787846016 | 28.89° C | 32% | 1245.6 hPa | 0 mm | - | 591 W/m² | - |
| 1787845711 | 28.33° C | 33% | 1245.7 hPa | 0 mm | - | 573 W/m² | - |
| 1787845410 | 28.33° C | 33% | 1245.5 hPa | 0 mm | - | 554 W/m² | - |
| 1787845107 | 28.33° C | 32% | 1245.7 hPa | 0 mm | - | 535 W/m² | - |
| 1787844803 | 27.78° C | 34% | 1245.7 hPa | 0 mm | - | 512 W/m² | - |
| 1787844501 | 27.22° C | 34% | 1245.6 hPa | 0 mm | - | 484 W/m² | - |
| 1787844197 | 26.67° C | 35% | 1245.5 hPa | 0 mm | - | 451 W/m² | - |
| 1787843895 | 26.67° C | 36% | 1245.7 hPa | 0 mm | - | 433 W/m² | - |
| 1787843591 | 25.56° C | 37% | 1245.6 hPa | 0 mm | - | 412 W/m² | - |
| 1787843287 | 25.56° C | 37% | 1245.5 hPa | 0 mm | - | 386 W/m² | - |
| 1787842983 | 24.44° C | 39% | 1245.5 hPa | 0 mm | - | 241 W/m² | - |
| 1787842683 | 23.89° C | 40% | 1245.6 hPa | 0 mm | - | 276 W/m² | - |
| 1787842378 | 23.89° C | 40% | 1245.6 hPa | 0 mm | - | 104 W/m² | - |
| 1787842078 | 23.33° C | 41% | 1245.6 hPa | 0 mm | - | 122 W/m² | - |
| 1787841773 | 22.78° C | 42% | 1245.6 hPa | 0 mm | - | 51 W/m² | - |
| 1787841469 | 22.78° C | 42% | 1245.8 hPa | 0 mm | - | 146 W/m² | - |
| 1787841168 | 22.78° C | 42% | 1245.7 hPa | 0 mm | - | 56 W/m² | - |
| 1787840863 | 22.78° C | 42% | 1245.7 hPa | 0 mm | - | 48 W/m² | - |
| 1787840559 | 22.78° C | 42% | 1245.6 hPa | 0 mm | - | 66 W/m² | - |
| 1787840259 | 22.22° C | 43% | 1245.9 hPa | 0 mm | - | 79 W/m² | - |
* Rain latest hour (hover to see other rain measurements)
** Current wind speed in m/s (hover to see current wind gust speed)